TimeMST,TemperatureF,Dew PointF,Humidity,Sea Level PressureIn,VisibilityMPH,Wind Direction,Wind SpeedMPH,Gust SpeedMPH,PrecipitationIn,Events,Conditions,WindDirDegrees,DateUTC
12:56 AM,34.0,30.0,85,29.99,10.0,NW,17.3,-,N/A,,Overcast,320,2014-01-25 07:56:00
1:56 AM,34.0,28.9,82,30.02,10.0,NW,19.6,-,N/A,,Overcast,320,2014-01-25 08:56:00
2:18 AM,33.1,28.0,82,29.97,10.0,NNW,18.4,26.5,N/A,,Overcast,330,2014-01-25 09:18:00
2:56 AM,33.1,28.9,85,30.04,10.0,NNW,16.1,20.7,N/A,,Overcast,340,2014-01-25 09:56:00
3:05 AM,32.0,28.0,85,29.98,10.0,North,13.8,-,N/A,,Overcast,350,2014-01-25 10:05:00
3:56 AM,30.9,27.0,85,30.04,10.0,NNW,11.5,-,N/A,,Overcast,330,2014-01-25 10:56:00
4:37 AM,30.9,28.0,89,29.96,10.0,NNW,9.2,-,N/A,,Overcast,330,2014-01-25 11:37:00
4:56 AM,32.0,28.0,85,30.03,10.0,NNW,11.5,-,N/A,,Overcast,340,2014-01-25 11:56:00
5:56 AM,30.9,28.0,89,30.02,10.0,NW,9.2,-,N/A,,Overcast,320,2014-01-25 12:56:00
6:23 AM,30.9,28.0,89,29.94,10.0,NNW,8.1,-,N/A,,Overcast,330,2014-01-25 13:23:00
6:56 AM,30.9,28.0,89,30.01,10.0,North,4.6,-,N/A,,Overcast,350,2014-01-25 13:56:00
7:09 AM,30.9,28.9,92,29.93,10.0,Calm,Calm,-,N/A,,Overcast,0,2014-01-25 14:09:00
7:27 AM,30.9,28.0,89,29.91,1.8,Calm,Calm,-,0.00,Snow,Light Snow,0,2014-01-25 14:27:00
7:37 AM,30.9,27.0,85,29.90,2.0,South,3.5,-,0.00,Snow,Light Snow,180,2014-01-25 14:37:00
7:41 AM,30.9,28.0,89,29.90,4.0,SSW,3.5,-,0.00,Snow,Light Snow,210,2014-01-25 14:41:00
7:56 AM,30.9,28.0,89,29.96,10.0,Calm,Calm,-,0.00,,Overcast,0,2014-01-25 14:56:00
8:56 AM,30.9,28.9,92,29.91,8.0,South,5.8,-,N/A,,Overcast,170,2014-01-25 15:56:00
9:48 AM,33.1,30.9,92,29.81,8.0,South,9.2,-,N/A,,Overcast,190,2014-01-25 16:48:00
9:56 AM,33.1,30.9,92,29.87,8.0,SSW,11.5,-,N/A,,Overcast,200,2014-01-25 16:56:00
10:24 AM,35.1,32.0,89,29.78,10.0,SSW,11.5,-,N/A,,Mostly Cloudy,210,2014-01-25 17:24:00
10:56 AM,37.9,32.0,79,29.81,10.0,WSW,16.1,-,N/A,,Scattered Clouds,240,2014-01-25 17:56:00
11:56 AM,41.0,33.1,73,29.71,10.0,WSW,15.0,-,N/A,,Mostly Cloudy,250,2014-01-25 18:56:00
12:56 PM,44.1,32.0,63,29.63,10.0,West,20.7,-,N/A,,Clear,260,2014-01-25 19:56:00
1:56 PM,46.0,32.0,58,29.57,10.0,West,21.9,29.9,N/A,,Clear,270,2014-01-25 20:56:00
2:56 PM,46.0,32.0,58,29.53,10.0,West,24.2,31.1,N/A,,Clear,280,2014-01-25 21:56:00
3:56 PM,46.0,32.0,58,29.51,10.0,WNW,26.5,32.2,N/A,,Clear,290,2014-01-25 22:56:00
4:56 PM,44.1,30.9,60,29.52,10.0,WNW,24.2,35.7,N/A,,Clear,290,2014-01-25 23:56:00
5:56 PM,42.1,30.9,65,29.55,10.0,WNW,23.0,36.8,N/A,,Mostly Cloudy,300,2014-01-26 00:56:00
6:56 PM,41.0,30.9,67,29.58,10.0,NW,25.3,31.1,N/A,,Overcast,310,2014-01-26 01:56:00
7:56 PM,39.9,30.0,68,29.61,10.0,NW,25.3,35.7,N/A,,Overcast,310,2014-01-26 02:56:00
8:18 PM,39.0,30.0,70,29.57,10.0,NW,23.0,33.4,N/A,,Overcast,320,2014-01-26 03:18:00
8:56 PM,39.0,30.0,70,29.64,10.0,NW,25.3,42.6,N/A,,Overcast,320,2014-01-26 03:56:00
9:11 PM,37.9,30.0,73,29.58,10.0,NW,23.0,32.2,N/A,,Overcast,310,2014-01-26 04:11:00
9:42 PM,37.9,30.9,76,29.59,10.0,NW,23.0,-,N/A,,Overcast,310,2014-01-26 04:42:00
9:56 PM,37.9,30.9,76,29.64,10.0,WNW,21.9,-,N/A,,Overcast,300,2014-01-26 04:56:00
10:08 PM,37.9,30.0,73,29.59,10.0,WNW,23.0,31.1,N/A,,Overcast,300,2014-01-26 05:08:00
10:56 PM,37.0,30.0,76,29.66,10.0,WNW,27.6,36.8,N/A,,Overcast,300,2014-01-26 05:56:00
11:56 PM,37.0,28.9,73,29.66,10.0,WNW,23.0,33.4,N/A,,Overcast,300,2014-01-26 06:56:00